Flag Weather past 2 weeks in Cape Coral, Florida, U.S.A.

Now
80 °F

Overcast.


Feels Like: 85 °F
Forecast: 72 / 80 °F
Wind: 10 mph from Southwest

Location: Page Field

Current Time: Nov 25, 2014 at 6:25:02 PM

Latest Report: Nov 25, 2014 at 5:53 PM


Visibility: 10 mi

Pressure: 29.92 "Hg

Humidity: 81%

Dew point: 74 °F

Location of Cape CoralLocation

Historic Weather in Cape Coral — Graph

°F

Cape Coral temperature yesterday

Maximum temperature yesterday: 85 °F (at 1:53 PM)
Minimum temperature yesterday: 73 °F (at 12:53 AM)
Average temperature yesterday: 78 °F

Past Weeks' High & Low Weather Summary

 TemperatureHumidityPressure
High86 °F (Nov 25, 2:53 PM)100% (Nov 14, 7:58 AM)30.31 "Hg (Nov 14, 7:58 AM)
Low47 °F (Nov 19, 6:53 AM)34% (Nov 12, 3:53 PM)29.88 "Hg (Nov 23, 3:53 PM)
Average69 °F76%30.07 "Hg
* Reported Nov 10 4:53 PM — Nov 25 4:53 PM, Cape Coral, Weather by CustomWeather, © 2014

Note: Actual official high and low records may vary slightly from our data, if they occured in-between our weather recording intervals... More about our weather records

Advertising

Cape Coral weather history for previous 24 hours

 ConditionsComfort  
Time TempWeatherWind HumidityBarometerVisibility
4:53 PM
Nov 25
81 °FMostly cloudy.15 mph79%29.90 "Hg10 mi
3:53 PM83 °FBroken clouds.13 mph74%29.90 "Hg10 mi
2:53 PM86 °FPartly sunny.16 mph65%29.89 "Hg10 mi
1:53 PM85 °FPassing clouds.13 mph70%29.89 "Hg10 mi
12:53 PM85 °FScattered clouds.14 mph72%29.93 "Hg10 mi
11:53 AM84 °FMostly cloudy.9 mph72%29.95 "Hg10 mi
10:53 AM84 °FBroken clouds.8 mph72%29.99 "Hg10 mi
9:53 AM81 °FMore clouds than sun.9 mph85%29.99 "Hg10 mi
8:53 AM79 °FBroken clouds.8 mph90%30.00 "Hg10 mi
7:53 AM78 °FScattered clouds.9 mph93%29.98 "Hg8 mi
6:53 AM77 °FPassing clouds.6 mph96%29.98 "Hg9 mi
5:53 AM77 °FPassing clouds.6 mph96%29.98 "Hg9 mi
4:53 AM77 °FPassing clouds.6 mph96%29.97 "Hg7 mi
3:53 AM77 °FFog.7 mph96%29.97 "Hg6 mi
2:53 AM77 °FLow clouds.5 mph94%29.98 "Hg7 mi
1:53 AM76 °FLow clouds.No wind97%30.00 "Hg8 mi
12:53 AM76 °FLight rain. Fog.No wind94%30.01 "Hg6 mi
11:53 PM
Nov 24
76 °FLight rain. Overcast.5 mph94%30.02 "Hg10 mi
10:53 PM77 °FMostly cloudy.3 mph82%30.02 "Hg10 mi
9:53 PM75 °FPassing clouds.3 mph85%30.01 "Hg10 mi
8:53 PM75 °FClear.No wind85%30.01 "Hg10 mi
7:53 PM76 °FClear.3 mph82%30.00 "Hg10 mi
6:53 PM77 °FClear.5 mph79%29.98 "Hg10 mi
Weather by CustomWeather, © 2014

See weather overviewHow to use our weather pages